Location: Alexander
(41.3564°N, 81.5960°W)
Time: 08:24:57
(UTC+00:00)

Cosmos 1833 Rocket - Pass Details

Date: 24 January 2021
Orbit: 833 x 839 km, 71.0° (Epoch: 02 March)

Event Time Altitude Azimuth Distance (km) Brightness Sun altitude
Rises 23:30:16 0° 346° (NNW) 3,389 5.8 -10.9°
Reaches altitude 10° 23:33:15 10° 1° (N) 2,452 5.0 -11.4°
Maximum altitude 23:37:38 23° 53° (NE) 1,714 3.8 -12.2°
Enters shadow 23:40:21 16° 90° (E) 2,027 4.1 -12.7°
